Miscellaneous Local Product
Issued by NWS Hastings, NE

Home | Current Version | Previous Version | Text Only | Print | Product List | Glossary On
Versions: 1 2 3 4 5 6 7 8 9 10 11 12 13 14 15 16 17 18 19 20 21 22 23 24 25 26 27 28 29 30 31 32 33 34 35 36 37 38 39 40 41 42 43 44 45 46 47 48 49 50
000
AXUS43 KGID 280602
MISGRI

GID CWA HOURLY WEATHER ROUNDUP
NATIONAL WEATHER SERVICE HASTINGS NE
100 AM CDT THU AUG 28 2014

NOTE: "FAIR" INDICATES FEW OR NO CLOUDS BELOW 12,000 FEET WITH NO
SIGNIFICANT WEATHER AND/OR OBSTRUCTIONS TO VISIBILITY.

...SOUTH CENTRAL NEBRASKA...

CITY           SKY/WX    TMP DP  RH WIND       PRES   REMARKS
GRAND ISLAND   LGT RAIN  72  70  93 SE8       30.01S
HASTINGS       RAIN      71  67  87 SE16G25   30.00F
KEARNEY        FAIR      70  68  94 SE9       30.00F
ORD            RAIN      70  69  97 E6        29.99F FOG
YORK           TSTM      72 N/A N/A SE9       30.03S
AURORA         CLOUDY    71  71 100 SE12      30.01F
LEXINGTON      RAIN      69  67  96 SE13      30.00R
HOLDREGE       LGT RAIN  68  66  92 SE8       29.99F
HEBRON         TSTM      72  69  90 E8        29.99F

...NEBRASKA PANHANDLE...

CITY           SKY/WX    TMP DP  RH WIND       PRES   REMARKS
CHADRON        CLOUDY    64  63  96 NW3       30.04S
ALLIANCE       CLOUDY    62  61  96 W7        30.05F
SCOTTSBLUFF    CLOUDY    63  61  93 CALM      30.09S
SIDNEY         LGT RAIN  63  61  93 S7        30.13R

...WESTERN AND NORTH CENTRAL NEBRASKA...

CITY           SKY/WX    TMP DP  RH WIND       PRES   REMARKS
VALENTINE      CLOUDY    68  67  96 E7        30.00F FOG
AINSWORTH      CLOUDY    67  67 100 CALM      30.02S FOG
ONEILL         HVY RAIN  69  69  98 E8        30.02F
BROKEN BOW     CLOUDY    69  67  93 E9        30.00F
IMPERIAL       LGT RAIN  63  59  87 N13G20    30.02F
NORTH PLATTE   CLOUDY    68  66  93 CALM      30.00F THUNDER
MCCOOK         MOCLDY    66  63  90 W25G32    30.03R

...EASTERN NEBRASKA...

CITY           SKY/WX    TMP DP  RH WIND       PRES   REMARKS
NORFOLK        LGT RAIN  69  67  93 SE10      30.03F FOG
SO SIOUX CITY  MOCLDY    69  67  93 E6        30.05F
TEKAMAH        RAIN      71  69  93 E9        30.05F FOG
COLUMBUS       CLOUDY    70  66  88 E9G17     30.03F
ALBION         LGT RAIN  69  67  94 SE10      30.02S
OMAHA EPPLEY   LGT RAIN  72  68  87 E9        30.04F
OFFUTT AFB     FAIR      71  71 100 E8        30.04S
MILLARD        CLOUDY    72  69  93 E3        30.03F
LINCOLN        LGT RAIN  72  69  90 E13       30.02F
NEBRASKA CITY  FAIR      69  69 100 E6        30.02F
BEATRICE       TSTM      72  71  98 E8        30.00F
FALLS CITY     MOCLDY    72  69  90 E3        30.01F

...NORTHERN KANSAS...

CITY           SKY/WX    TMP DP  RH WIND       PRES   REMARKS
GOODLAND       CLOUDY    68  66  93 SW5       30.03R
HILL CITY      FAIR      66  64  93 E5        29.99F
NORTON         MOCLDY    66  63  88 E7        29.96F
PHILLIPSBURG   LGT RAIN  70  70 100 NE9       29.97F
SMITH CENTER   CLOUDY    66  66 100 NE8       29.98F
BELOIT         CLOUDY    73  72  94 CALM      29.97S
HAYS           CLOUDY    70  64  83 NE6       29.99S
RUSSELL        MOCLDY    74  68  81 S6        29.97F
CONCORDIA      CLOUDY    74  72  93 E6        29.97S
SALINA         LGT RAIN  80  67  64 SE9       29.96S
TOPEKA         FAIR      80  74  81 E8        30.00F



USA.gov is the U.S. government's official web portal to all federal, state and local government web resources and services.